K4MZ Weather Reports


time (UTC)temp
C
wind
direction
speed
KPH
gust
KPH
rain 1hr
cm
rain 24hr
cm
rain mn
cm
humidity
%
barometer
mb
20260506150531 16 104 1.6 3.2 0.20 0.28 0.28 85 1013.1
20260506145537 16 115 0.0 1.6 0.18 0.25 0.25 85 1013.4
20260506144537 16 103 1.6 3.2 0.18 0.25 0.25 84 1013.4
20260506143536 16 122 0.0 1.6 0.13 0.18 0.18 83 1013.6
20260506142531 16 123 1.6 1.6 0.10 0.13 0.13 82 1013.3
20260506141532 16 169 0.0 1.6 0.08 0.10 0.10 81 1013.3
20260506140552 16 128 1.6 6.4 0.08 0.08 0.08 80 1013.0
20260506135552 16 104 1.6 1.6 0.05 0.08 0.08 79 1012.9
20260506134559 16 119 1.6 4.8 0.05 0.05 0.05 79 1013.0
20260506133538 17 126 1.6 3.2 0.03 0.03 0.03 77 1012.9
20260506132613 17 128 1.6 3.2 0.00 0.03 0.03 76 1012.9
20260506131533 17 136 1.6 8.0 0.00 0.03 0.03 75 1012.9
20260506130544 17 164 3.2 9.7 0.00 0.03 0.03 75 1012.7
20260506125538 17 121 3.2 8.0 0.00 0.03 0.03 76 1012.7
20260506124559 17 152 1.6 4.8 0.00 0.03 0.03 77 1012.7
20260506123539 16 75 3.2 4.8 0.03 0.03 0.03 77 1012.6
20260506122539 16 91 3.2 8.0 0.03 0.03 0.03 78 1012.5
20260506121518 16 136 3.2 6.4 0.03 0.03 0.03 78 1012.6
20260506120519 16 118 1.6 3.2 0.03 0.03 0.03 77 1012.5
20260506115559 17 57 1.6 3.2 0.03 0.03 0.03 76 1012.5
20260506114620 17 125 1.6 3.2 0.00 0.00 0.00 75 1012.2
20260506113540 17 129 1.6 4.8 0.00 0.00 0.00 75 1012.1
20260506112520 17 116 1.6 4.8 0.00 0.00 0.00 75 1012.2
20260506111520 16 117 1.6 4.8 0.00 0.00 0.00 75 1012.1
20260506110620 16 135 3.2 4.8 0.00 0.00 0.00 75 1012.1
20260506105540 16 114 1.6 6.4 0.00 0.00 0.00 75 1012.1
20260506104601 16 126 3.2 4.8 0.00 0.00 0.00 75 1011.9
20260506103520 16 124 3.2 4.8 0.00 0.00 0.00 75 1011.8
20260506102520 16 85 3.2 9.7 0.00 0.00 0.00 75 1011.9
20260506101621 16 98 1.6 3.2 0.00 0.00 0.00 75 1012.1
20260506100521 16 100 3.2 4.8 0.00 0.00 0.00 75 1012.0
20260506095521 16 120 1.6 3.2 0.00 0.00 0.00 75 1012.2
20260506094622 16 123 1.6 3.2 0.00 0.00 0.00 75 1012.0
20260506093521 16 84 1.6 3.2 0.00 0.00 0.00 75 1012.1
20260506092542 16 119 1.6 4.8 0.00 0.00 0.00 75 1012.2
20260506091522 17 96 1.6 4.8 0.00 0.00 0.00 75 1012.2
20260506090522 17 105 3.2 6.4 0.00 0.00 0.00 75 1012.4
20260506085522 17 127 1.6 3.2 0.00 0.00 0.00 75 1012.2
20260506084542 16 125 3.2 4.8 0.00 0.00 0.00 75 1012.3
20260506083558 16 138 3.2 4.8 0.00 0.00 0.00 75 1012.4
20260506082523 17 107 1.6 4.8 0.00 0.00 0.00 75 1012.6
20260506081523 17 95 1.6 4.8 0.00 0.00 0.00 75 1012.8
20260506080603 17 143 3.2 6.4 0.00 0.00 0.00 75 1012.6
20260506073523 17 91 1.6 4.8 0.00 0.00 0.00 74 1012.6
20260506072624 17 125 3.2 4.8 0.00 0.00 0.00 74 1012.6
20260506071544 17 98 3.2 4.8 0.00 0.00 0.00 73 1012.7
20260506070524 17 104 3.2 8.0 0.00 0.00 0.00 73 1012.7
20260506061525 17 131 3.2 4.8 0.00 0.00 0.00 71 1012.8
20260506060525 18 96 3.2 6.4 0.00 0.00 0.00 70 1012.9
20260506050526 18 112 1.6 4.8 0.00 0.00 0.00 66 1013.4
20260506044526 18 124 4.8 8.0 0.00 0.00 0.00 63 1013.5
20260506043526 18 104 3.2 8.0 0.00 0.00 0.00 62 1013.5
20260506042540 18 113 3.2 8.0 0.00 0.00 0.00 60 1013.4
20260506041547 18 108 3.2 4.8 0.00 0.00 0.00 58 1013.3
20260506040527 18 115 3.2 4.8 0.00 0.00 0.00 57 1013.2
20260506035627 18 104 3.2 8.0 0.00 0.00 0.00 56 1013.2
20260506034608 18 89 3.2 4.8 0.00 0.00 0.00 55 1013.1
20260506033527 19 107 1.6 3.2 0.00 0.00 0.00 54 1013.1
20260506032547 19 105 1.6 3.2 0.00 0.00 0.00 53 1013.1
20260506031608 19 94 3.2 6.4 0.00 0.00 0.00 53 1013.1
20260506030528 19 102 3.2 4.8 0.00 0.00 0.00 53 1013.2
20260506025608 19 106 3.2 4.8 0.00 0.00 0.00 53 1013.3
20260506024543 19 115 3.2 6.4 0.00 0.00 0.00 52 1013.3
20260506023528 19 121 1.6 3.2 0.00 0.00 0.00 51 1013.4
20260506022528 20 111 3.2 3.2 0.00 0.00 0.00 51 1013.4
20260506021529 20 108 1.6 6.4 0.00 0.00 0.00 50 1013.3
20260506020549 20 123 1.6 3.2 0.00 0.00 0.00 50 1013.3
20260506015549 20 107 3.2 6.4 0.00 0.00 0.00 49 1013.3
20260506014558 20 109 1.6 4.8 0.00 0.00 0.00 48 1013.2
20260506013541 21 111 0.0 3.2 0.00 0.00 0.00 47 1013.1
20260506012521 21 70 1.6 4.8 0.00 0.00 0.00 47 1013.1
20260506011639 21 105 1.6 6.4 0.00 0.00 0.00 47 1013.0
20260506004619 21 101 3.2 6.4 0.00 0.00 0.00 44 1012.6
20260506003519 22 114 1.6 6.4 0.00 0.00 0.00 43 1012.6
20260506002519 22 112 1.6 4.8 0.00 0.00 0.00 43 1012.6
20260506001700 22 119 3.2 6.4 0.00 0.00 0.00 42 1012.4
20260506000600 22 99 1.6 6.4 0.00 0.00 0.00 41 1012.3
20260505235519 23 112 3.2 6.4 0.00 0.00 0.00 41 1012.3
20260505234520 23 110 1.6 4.8 0.00 0.00 0.00 40 1012.3
20260505233520 23 117 3.2 6.4 0.00 0.00 0.00 40 1012.2
20260505232520 24 115 1.6 4.8 0.00 0.00 0.00 39 1012.1
20260505231520 25 100 3.2 8.0 0.00 0.00 0.00 37 1012.1
20260505230538 26 121 3.2 8.0 0.00 0.00 0.00 35 1012.1
20260505225558 26 132 3.2 9.7 0.00 0.00 0.00 35 1012.2
20260505224518 25 133 3.2 6.4 0.00 0.00 0.00 36 1012.3
20260505223518 25 131 1.6 8.0 0.00 0.00 0.00 36 1012.4
20260505222518 26 114 3.2 9.7 0.00 0.00 0.00 35 1012.4
20260505221538 26 96 4.8 12.9 0.00 0.00 0.00 34 1012.4
20260505220518 26 134 3.2 9.7 0.00 0.00 0.00 35 1012.4
20260505215539 26 114 4.8 14.5 0.00 0.00 0.00 35 1012.4
20260505214539 26 119 3.2 8.0 0.00 0.00 0.00 36 1012.5
20260505213539 26 143 3.2 11.3 0.00 0.00 0.00 34 1012.4
20260505212519 26 116 3.2 11.3 0.00 0.00 0.00 34 1012.5
20260505211519 26 84 1.6 9.7 0.00 0.00 0.00 36 1012.6
20260505210537 26 112 4.8 12.9 0.00 0.00 0.00 36 1012.5
20260505204559 25 116 3.2 12.9 0.00 0.00 0.00 36 1012.8
20260505203520 26 167 3.2 14.5 0.00 0.00 0.00 35 1012.6
20260505202517 26 129 4.8 17.7 0.00 0.00 0.00 33 1012.8
20260505201557 27 107 4.8 12.9 0.00 0.00 0.00 33 1012.8
20260505200701 27 114 3.2 11.3 0.00 0.00 0.00 33 1012.9
20260505195517 27 76 3.2 9.7 0.00 0.00 0.00 33 1013.0
20260505194518 27 275 3.2 9.7 0.00 0.00 0.00 34 1013.1
20260505193541 27 107 4.8 9.7 0.00 0.00 0.00 33 1013.2
20260505192521 27 140 4.8 14.5 0.00 0.00 0.00 34 1013.3
20260505191538 27 126 3.2 8.0 0.00 0.00 0.00 33 1013.4
20260505190542 27 98 4.8 12.9 0.00 0.00 0.00 33 1013.6
20260505185539 26 305 3.2 9.7 0.00 0.00 0.00 36 1013.8
20260505184559 26 143 4.8 9.7 0.00 0.00 0.00 35 1013.8
20260505183536 26 131 4.8 11.3 0.00 0.00 0.00 35 1013.9
20260505182539 26 133 3.2 11.3 0.00 0.00 0.00 35 1014.0
20260505181519 26 83 3.2 8.0 0.00 0.00 0.00 36 1014.1
20260505180519 26 121 4.8 14.5 0.00 0.00 0.00 35 1014.3
20260505175537 26 131 3.2 9.7 0.00 0.00 0.00 36 1014.5
20260505174600 26 97 3.2 14.5 0.00 0.00 0.00 36 1014.5
20260505173606 26 133 4.8 11.3 0.00 0.00 0.00 37 1014.5
20260505172520 26 141 3.2 11.3 0.00 0.00 0.00 37 1014.8
20260505171517 26 311 3.2 12.9 0.00 0.00 0.00 38 1014.9
20260505170558 25 140 3.2 11.3 0.00 0.00 0.00 37 1015.0
20260505165521 25 113 4.8 12.9 0.00 0.00 0.00 37 1015.1
20260505164538 25 283 4.8 11.3 0.00 0.00 0.00 39 1015.2
20260505163518 25 314 4.8 12.9 0.00 0.00 0.00 40 1015.3
20260505162618 25 113 3.2 9.7 0.00 0.00 0.00 42 1015.4
20260505161538 24 134 3.2 6.4 0.00 0.00 0.00 44 1015.5
20260505160539 24 309 4.8 12.9 0.00 0.00 0.00 45 1015.6
20260505152639 23 132 1.6 6.4 0.00 0.00 0.00 47 1015.9
20260505151559 23 101 3.2 12.9 0.00 0.00 0.00 48 1015.9